sat.trackr.live / text

‹ back to catalog

STARLINK-32927

NORAD 63094 · 2025-037T

PAYLOAD ACTIVE UNKNOWN

§ Identity

Operator
Country
US
Launch date
2025-02-23
Launch site
AFWTR
Launch vehicle
Mass (kg)
RCS (m²)

Purposes: comms

External: N2YO · Heavens-Above · Gunter

§ Orbital elements

Epoch: 2026-09-20T07:07:50.551104Z

Period
94.14 min
Inclination
70.0004°
Eccentricity
0.0002950
Mean motion
15.29605614 rev/d
Perigee alt
475.0 km
Apogee alt
479.0 km
Semi-major
6,855.1 km
B*
3.0036e-4
RAAN
221.3428°
Arg perigee
269.7404°
Mean anomaly
90.3433°
Rev number
8,776

§ Raw data

STARLINK-329271 63094U 25037T   26263.29711286  .00008523  00000+0  30036-3 0  99962 63094  70.0004 221.3428 0002950 269.7404  90.3433 15.29605614 87764

JSON: /api/v1/satellites/63094 · /tle

For live sub-satellite position, see the globe view (requires WebGL).

§ Visibility from observer

Set your observer location to see the next 7 days of passes ≥ 10°. The values pass through the URL so the page stays shareable.

No JS? Fill the form by hand. The geolocation button needs JavaScript.